TimeEST,TemperatureF,Dew PointF,Humidity,Sea Level PressureIn,VisibilityMPH,Wind Direction,Wind SpeedMPH,Gust SpeedMPH,PrecipitationIn,Events,Conditions,WindDirDegrees,DateUTC
12:38 AM,37.0,37.0,100,30.17,9.0,North,5.8,-,0.00,,Overcast,360,2014-01-31 05:38:00
12:51 AM,37.0,37.0,100,30.17,10.0,Variable,5.8,-,0.00,,Overcast,0,2014-01-31 05:51:00
1:51 AM,37.0,36.0,96,30.16,9.0,NNW,6.9,-,0.00,Rain,Light Rain,330,2014-01-31 06:51:00
2:51 AM,36.0,36.0,100,30.15,8.0,North,8.1,-,0.00,,Overcast,10,2014-01-31 07:51:00
3:51 AM,36.0,36.0,100,30.15,6.0,NNW,5.8,-,0.00,Rain,Light Rain,340,2014-01-31 08:51:00
4:51 AM,36.0,35.1,97,30.16,5.0,Variable,6.9,-,0.00,,Overcast,0,2014-01-31 09:51:00
5:51 AM,35.1,35.1,100,30.17,5.0,Variable,6.9,-,0.00,,Overcast,0,2014-01-31 10:51:00
6:51 AM,36.0,36.0,100,30.18,5.0,North,4.6,-,0.00,Rain,Light Rain,350,2014-01-31 11:51:00
7:51 AM,36.0,36.0,100,30.20,5.0,Variable,3.5,-,0.00,,Overcast,0,2014-01-31 12:51:00
8:51 AM,36.0,36.0,100,30.22,4.0,Variable,4.6,-,N/A,,Overcast,0,2014-01-31 13:51:00
9:05 AM,36.0,36.0,100,30.23,1.8,Variable,3.5,-,N/A,,Overcast,0,2014-01-31 14:05:00
9:30 AM,37.0,36.0,96,30.22,1.8,Variable,6.9,-,N/A,,Overcast,0,2014-01-31 14:30:00
9:40 AM,37.0,36.0,96,30.22,2.0,North,9.2,-,N/A,,Overcast,10,2014-01-31 14:40:00
9:48 AM,37.4,37.4,100,30.22,3.0,Variable,5.8,-,N/A,,Overcast,0,2014-01-31 14:48:00
9:51 AM,37.0,37.0,100,30.22,3.0,NNE,6.9,-,N/A,,Overcast,20,2014-01-31 14:51:00
10:51 AM,39.9,37.9,93,30.22,10.0,Variable,4.6,-,N/A,,Overcast,0,2014-01-31 15:51:00
11:51 AM,42.1,39.0,89,30.21,10.0,Variable,3.5,-,N/A,,Overcast,0,2014-01-31 16:51:00
12:20 PM,42.1,37.9,85,30.20,10.0,Variable,4.6,-,N/A,,Overcast,0,2014-01-31 17:20:00
12:51 PM,39.9,36.0,86,30.19,10.0,North,5.8,-,N/A,,Overcast,10,2014-01-31 17:51:00
1:23 PM,41.0,36.0,82,30.17,10.0,North,8.1,-,N/A,,Overcast,10,2014-01-31 18:23:00
1:51 PM,41.0,36.0,82,30.18,10.0,Variable,3.5,-,N/A,,Overcast,0,2014-01-31 18:51:00
2:33 PM,41.0,37.0,86,30.17,10.0,North,3.5,-,N/A,,Overcast,350,2014-01-31 19:33:00
2:51 PM,42.1,37.9,85,30.17,10.0,Calm,Calm,-,N/A,,Overcast,0,2014-01-31 19:51:00
3:51 PM,46.9,39.9,77,30.17,10.0,Calm,Calm,-,N/A,,Overcast,0,2014-01-31 20:51:00
4:09 PM,46.9,39.9,77,30.17,10.0,Calm,Calm,-,N/A,,Overcast,0,2014-01-31 21:09:00
4:51 PM,46.0,41.0,83,30.19,10.0,Calm,Calm,-,N/A,,Overcast,0,2014-01-31 21:51:00
5:51 PM,45.0,41.0,86,30.19,10.0,Calm,Calm,-,N/A,,Overcast,0,2014-01-31 22:51:00
6:36 PM,46.0,42.1,86,30.21,10.0,Calm,Calm,-,N/A,,Overcast,0,2014-01-31 23:36:00
6:51 PM,46.0,42.1,86,30.20,10.0,Calm,Calm,-,N/A,,Overcast,0,2014-01-31 23:51:00
7:51 PM,42.1,39.9,92,30.21,10.0,Calm,Calm,-,N/A,,Overcast,0,2014-02-01 00:51:00
8:51 PM,44.1,41.0,89,30.21,10.0,Calm,Calm,-,N/A,,Overcast,0,2014-02-01 01:51:00
9:11 PM,42.1,39.0,89,30.21,10.0,North,3.5,-,N/A,,Scattered Clouds,350,2014-02-01 02:11:00
9:51 PM,41.0,39.0,93,30.22,2.5,North,5.8,-,N/A,,Scattered Clouds,360,2014-02-01 02:51:00
9:53 PM,41.0,39.9,96,30.22,1.0,North,5.8,-,N/A,,Mist,350,2014-02-01 02:53:00
9:57 PM,41.0,39.9,96,30.22,0.2,North,4.6,-,N/A,Fog,Fog,350,2014-02-01 02:57:00
10:29 PM,41.0,41.0,100,30.21,1.0,NNW,3.5,-,N/A,,Mist,340,2014-02-01 03:29:00
10:32 PM,39.9,39.9,100,30.21,2.0,NNW,3.5,-,N/A,,Mostly Cloudy,340,2014-02-01 03:32:00
10:35 PM,39.9,39.9,100,30.22,5.0,NNW,3.5,-,N/A,,Scattered Clouds,340,2014-02-01 03:35:00
10:51 PM,41.0,41.0,100,30.22,3.0,NNW,4.6,-,N/A,,Partly Cloudy,340,2014-02-01 03:51:00
10:53 PM,41.0,41.0,100,30.22,1.8,NNW,4.6,-,N/A,,Partly Cloudy,340,2014-02-01 03:53:00
10:58 PM,41.0,41.0,100,30.21,0.8,NNW,4.6,-,N/A,,Mostly Cloudy,330,2014-02-01 03:58:00
11:04 PM,41.0,41.0,100,30.21,1.8,NNW,4.6,-,N/A,,Mostly Cloudy,340,2014-02-01 04:04:00
11:06 PM,41.0,41.0,100,30.21,3.0,North,4.6,-,N/A,,Mostly Cloudy,350,2014-02-01 04:06:00
11:26 PM,39.9,39.0,97,30.21,1.8,North,6.9,-,N/A,,Overcast,350,2014-02-01 04:26:00
11:36 PM,39.0,39.0,100,30.21,1.0,North,6.9,-,N/A,,Overcast,350,2014-02-01 04:36:00
11:51 PM,37.9,37.9,100,30.22,0.8,North,6.9,-,N/A,,Mist,350,2014-02-01 04:51:00
11:58 PM,37.9,37.9,100,30.22,1.5,North,6.9,-,N/A,,Mostly Cloudy,350,2014-02-01 04:58:00